| time (UTC) | temp C | wind direction | speed KPH | gust KPH | rain 1hr cm | rain 24hr cm | rain mn cm | humidity % | barometer mb |
| 20260507021057 | 9 | 219 | 1.6 | 8.0 | 0.13 | 2.13 | 2.13 | 99 | 1004.3 |
| 20260507020556 | 9 | 243 | 3.2 | 3.2 | 0.13 | 2.13 | 2.13 | 99 | 1004.4 |
| 20260507020051 | 9 | 243 | 1.6 | 1.6 | 0.18 | 2.11 | 2.11 | 99 | 1004.3 |
| 20260507015550 | 9 | 243 | 3.2 | 3.2 | 0.00 | 2.08 | 2.08 | 99 | 1004.4 |
| 20260507015047 | 10 | 243 | 1.6 | 3.2 | 0.00 | 2.08 | 2.08 | 99 | 1004.4 |
| 20260507014543 | 10 | 243 | 0.0 | 4.8 | 0.13 | 2.08 | 2.08 | 99 | 1004.4 |
| 20260507014033 | 10 | 243 | 0.0 | 0.0 | 0.18 | 2.06 | 2.06 | 99 | 1004.0 |
| 20260507013530 | 10 | 243 | 0.0 | 1.6 | 0.18 | 2.06 | 2.06 | 99 | 1003.9 |
| 20260507013027 | 10 | 243 | 1.6 | 3.2 | 0.18 | 2.03 | 2.03 | 99 | 1003.9 |
| 20260507012525 | 10 | 243 | 1.6 | 3.2 | 0.18 | 2.03 | 2.03 | 99 | 1003.9 |
| 20260507012021 | 10 | 243 | 1.6 | 1.6 | 0.00 | 2.01 | 2.01 | 99 | 1004.0 |
| 20260507011518 | 10 | 243 | 0.0 | 0.0 | 0.00 | 2.01 | 2.01 | 99 | 1003.8 |
| 20260507011008 | 10 | 243 | 0.0 | 1.6 | 0.13 | 2.01 | 2.01 | 98 | 1003.8 |
| 20260507010503 | 11 | 243 | 4.8 | 4.8 | 0.13 | 2.01 | 2.01 | 97 | 1003.6 |
| 20260507005959 | 11 | 243 | 3.2 | 4.8 | 0.00 | 1.98 | 1.98 | 97 | 1003.8 |
| 20260507005456 | 11 | 244 | 1.6 | 3.2 | 0.00 | 1.98 | 1.98 | 97 | 1003.7 |
| 20260507004947 | 11 | 244 | 4.8 | 8.0 | 0.00 | 1.98 | 1.98 | 98 | 1003.7 |
| 20260507004444 | 11 | 244 | 3.2 | 3.2 | 0.00 | 1.98 | 1.98 | 97 | 1003.4 |
| 20260507003942 | 11 | 243 | 6.4 | 8.0 | 0.00 | 1.98 | 1.98 | 98 | 1003.3 |
| 20260507003437 | 11 | 244 | 0.0 | 1.6 | 0.00 | 1.98 | 1.98 | 99 | 1003.2 |
| 20260507002932 | 11 | 244 | 1.6 | 3.2 | 0.00 | 1.98 | 1.98 | 99 | 1003.4 |
| 20260507002429 | 11 | 244 | 1.6 | 1.6 | 0.00 | 1.98 | 1.98 | 98 | 1003.3 |
| 20260507001926 | 11 | 244 | 1.6 | 4.8 | 0.00 | 1.98 | 1.98 | 98 | 1003.0 |
| 20260507001422 | 11 | 244 | 4.8 | 4.8 | 0.00 | 1.98 | 1.98 | 99 | 1002.7 |
| 20260507000920 | 11 | 244 | 0.0 | 4.8 | 0.00 | 1.98 | 1.98 | 99 | 1002.7 |
| 20260507000415 | 11 | 243 | 0.0 | 3.2 | 0.00 | 1.98 | 1.98 | 99 | 1002.7 |
| 20260506235911 | 11 | 243 | 0.0 | 3.2 | 0.00 | 1.98 | 1.98 | 99 | 1002.5 |
| 20260506235409 | 12 | 244 | 1.6 | 4.8 | 0.00 | 1.98 | 1.98 | 99 | 1002.6 |
| 20260506234904 | 12 | 244 | 1.6 | 4.8 | 0.00 | 1.98 | 1.98 | 99 | 1002.3 |
| 20260506234403 | 12 | 244 | 1.6 | 1.6 | 0.00 | 1.98 | 1.98 | 99 | 1002.4 |
| 20260506233900 | 12 | 244 | 3.2 | 3.2 | 0.00 | 1.98 | 1.98 | 99 | 1002.6 |
| 20260506233355 | 12 | 244 | 4.8 | 8.0 | 0.00 | 1.98 | 1.98 | 99 | 1002.3 |
| 20260506232852 | 12 | 244 | 4.8 | 9.7 | 0.00 | 1.98 | 1.98 | 98 | 1002.4 |
| 20260506232348 | 12 | 244 | 6.4 | 12.9 | 0.00 | 1.98 | 1.98 | 98 | 1002.2 |
| 20260506231844 | 12 | 244 | 8.0 | 14.5 | 0.00 | 1.98 | 1.98 | 98 | 1002.3 |
| 20260506231343 | 12 | 244 | 9.7 | 12.9 | 0.00 | 1.98 | 1.98 | 99 | 1002.2 |
| 20260506230840 | 13 | 244 | 8.0 | 9.7 | 0.00 | 1.98 | 1.98 | 99 | 1002.0 |
| 20260506230336 | 13 | 244 | 8.0 | 11.3 | 0.00 | 1.98 | 1.98 | 99 | 1002.0 |
| 20260506225832 | 13 | 244 | 8.0 | 9.7 | 0.00 | 1.98 | 1.98 | 99 | 1001.8 |
| 20260506225330 | 13 | 244 | 3.2 | 3.2 | 0.00 | 1.98 | 1.98 | 99 | 1001.7 |
| 20260506224826 | 14 | 244 | 0.0 | 0.0 | 0.00 | 1.98 | 1.98 | 99 | 1001.7 |
| 20260506224323 | 14 | 244 | 3.2 | 3.2 | 0.00 | 1.98 | 1.98 | 99 | 1001.8 |
| 20260506223820 | 14 | 244 | 4.8 | 8.0 | 0.00 | 1.98 | 1.98 | 99 | 1001.8 |
| 20260506223315 | 14 | 244 | 6.4 | 8.0 | 0.30 | 1.98 | 1.98 | 99 | 1001.7 |
| 20260506222813 | 15 | 243 | 4.8 | 4.8 | 1.50 | 1.98 | 1.98 | 99 | 1001.5 |
| 20260506222308 | 15 | 244 | 8.0 | 8.0 | 1.07 | 1.80 | 1.80 | 99 | 1001.7 |
| 20260506221806 | 15 | 244 | 1.6 | 1.6 | 0.89 | 1.68 | 1.68 | 99 | 1001.5 |
| 20260506221303 | 15 | 244 | 1.6 | 3.2 | 0.89 | 1.60 | 1.60 | 99 | 1001.4 |
| 20260506220801 | 15 | 244 | 4.8 | 9.7 | 0.71 | 1.52 | 1.52 | 99 | 1001.4 |
| 20260506220255 | 15 | 244 | 1.6 | 3.2 | 0.48 | 1.45 | 1.45 | 99 | 1001.4 |
| 20260506215752 | 15 | 244 | 1.6 | 4.8 | 0.36 | 1.42 | 1.42 | 99 | 1001.3 |
| 20260506215248 | 15 | 244 | 4.8 | 4.8 | 0.30 | 1.37 | 1.37 | 99 | 1001.4 |
| 20260506214744 | 15 | 244 | 0.0 | 4.8 | 0.30 | 1.35 | 1.35 | 99 | 1001.5 |
| 20260506214242 | 15 | 244 | 1.6 | 3.2 | 0.30 | 1.32 | 1.32 | 99 | 1001.6 |
| 20260506213740 | 15 | 243 | 1.6 | 3.2 | 0.43 | 1.30 | 1.30 | 99 | 1001.6 |
| 20260506213231 | 15 | 244 | 0.0 | 1.6 | 0.79 | 1.27 | 1.27 | 99 | 1001.5 |
| 20260506212728 | 15 | 244 | 1.6 | 1.6 | 0.43 | 1.19 | 1.19 | 99 | 1001.8 |
| 20260506212223 | 15 | 244 | 1.6 | 3.2 | 0.30 | 1.14 | 1.14 | 99 | 1001.7 |
| 20260506211714 | 15 | 244 | 0.0 | 3.2 | 0.36 | 1.14 | 1.14 | 99 | 1001.7 |
| 20260506211210 | 15 | 244 | 1.6 | 4.8 | 0.18 | 1.09 | 1.09 | 99 | 1001.7 |
| 20260506210707 | 15 | 244 | 4.8 | 4.8 | 0.00 | 1.07 | 1.07 | 99 | 1001.7 |
| 20260506210204 | 16 | 243 | 6.4 | 8.0 | 0.00 | 1.07 | 1.07 | 99 | 1001.7 |
| 20260506205701 | 16 | 244 | 0.0 | 3.2 | 0.13 | 1.07 | 1.07 | 99 | 1001.8 |
| 20260506205156 | 16 | 243 | 0.0 | 1.6 | 0.00 | 1.04 | 1.04 | 99 | 1001.8 |
| 20260506204654 | 16 | 243 | 0.0 | 1.6 | 0.18 | 1.04 | 1.04 | 99 | 1001.9 |
| 20260506204151 | 16 | 244 | 0.0 | 0.0 | 0.00 | 1.02 | 1.02 | 99 | 1002.1 |
| 20260506203649 | 15 | 244 | 3.2 | 4.8 | 0.00 | 1.02 | 1.02 | 99 | 1002.0 |
| 20260506203146 | 16 | 244 | 3.2 | 4.8 | 0.13 | 1.02 | 1.02 | 99 | 1002.1 |
| 20260506202644 | 16 | 244 | 1.6 | 4.8 | 0.13 | 1.02 | 1.02 | 99 | 1002.2 |
| 20260506202139 | 16 | 244 | 3.2 | 4.8 | 0.00 | 0.99 | 0.99 | 99 | 1002.3 |
| 20260506201637 | 16 | 244 | 1.6 | 1.6 | 0.00 | 0.99 | 0.99 | 99 | 1002.2 |
| 20260506201133 | 16 | 244 | 0.0 | 1.6 | 0.00 | 0.99 | 0.99 | 99 | 1002.2 |
| 20260506200630 | 15 | 243 | 1.6 | 1.6 | 0.18 | 0.99 | 0.99 | 99 | 1002.2 |
| 20260506200127 | 15 | 244 | 6.4 | 9.7 | 0.18 | 0.99 | 0.99 | 99 | 1002.5 |
| 20260506195623 | 15 | 244 | 1.6 | 8.0 | 0.00 | 0.97 | 0.97 | 99 | 1002.3 |
| 20260506195119 | 15 | 244 | 0.0 | 1.6 | 0.13 | 0.97 | 0.97 | 99 | 1002.4 |
| 20260506194617 | 15 | 244 | 0.0 | 1.6 | 0.00 | 0.94 | 0.94 | 99 | 1002.6 |
| 20260506194113 | 15 | 244 | 1.6 | 1.6 | 0.18 | 0.94 | 0.94 | 99 | 1002.7 |
| 20260506193611 | 15 | 244 | 1.6 | 3.2 | 0.18 | 0.94 | 0.94 | 99 | 1002.6 |
| 20260506193108 | 15 | 244 | 0.0 | 1.6 | 0.13 | 0.91 | 0.91 | 99 | 1002.7 |
| 20260506192605 | 15 | 244 | 1.6 | 3.2 | 0.13 | 0.91 | 0.91 | 99 | 1003.0 |
| 20260506192101 | 15 | 244 | 0.0 | 3.2 | 0.18 | 0.89 | 0.89 | 99 | 1003.1 |
| 20260506191557 | 15 | 244 | 1.6 | 3.2 | 0.18 | 0.89 | 0.89 | 99 | 1003.3 |
| 20260506191053 | 15 | 244 | 6.4 | 9.7 | 0.13 | 0.86 | 0.86 | 99 | 1003.0 |
| 20260506190551 | 15 | 243 | 1.6 | 4.8 | 0.18 | 0.86 | 0.86 | 99 | 1002.7 |
| 20260506190047 | 15 | 244 | 0.0 | 4.8 | 0.30 | 0.81 | 0.81 | 99 | 1003.0 |
| 20260506185544 | 15 | 244 | 4.8 | 4.8 | 0.18 | 0.76 | 0.76 | 99 | 1002.7 |
| 20260506185036 | 15 | 244 | 3.2 | 4.8 | 0.18 | 0.76 | 0.76 | 99 | 1003.0 |
| 20260506184533 | 15 | 243 | 3.2 | 4.8 | 0.13 | 0.74 | 0.74 | 99 | 1002.8 |
| 20260506184030 | 15 | 243 | 0.0 | 3.2 | 0.30 | 0.74 | 0.74 | 99 | 1003.0 |
| 20260506183526 | 15 | 243 | 1.6 | 1.6 | 0.36 | 0.71 | 0.71 | 99 | 1002.8 |
| 20260506183023 | 15 | 244 | 1.6 | 3.2 | 0.30 | 0.69 | 0.69 | 99 | 1003.1 |
| 20260506182520 | 15 | 244 | 4.8 | 4.8 | 0.30 | 0.66 | 0.66 | 99 | 1003.4 |
| 20260506182011 | 15 | 244 | 3.2 | 3.2 | 0.30 | 0.64 | 0.64 | 99 | 1003.2 |
| 20260506181509 | 15 | 244 | 0.0 | 1.6 | 0.30 | 0.61 | 0.61 | 99 | 1003.3 |
| 20260506181006 | 15 | 244 | 0.0 | 4.8 | 0.30 | 0.58 | 0.58 | 99 | 1003.7 |
| 20260506180502 | 15 | 243 | 1.6 | 3.2 | 0.30 | 0.56 | 0.56 | 99 | 1003.7 |
| 20260506175959 | 15 | 244 | 1.6 | 3.2 | 0.30 | 0.53 | 0.53 | 99 | 1003.8 |
| 20260506175455 | 15 | 244 | 4.8 | 4.8 | 0.30 | 0.51 | 0.51 | 99 | 1003.8 |
| 20260506174946 | 15 | 244 | 0.0 | 1.6 | 0.30 | 0.48 | 0.48 | 99 | 1003.8 |
| 20260506174444 | 15 | 244 | 0.0 | 1.6 | 0.30 | 0.46 | 0.46 | 99 | 1003.8 |
| 20260506173940 | 15 | 244 | 1.6 | 1.6 | 0.30 | 0.43 | 0.43 | 99 | 1004.1 |
| 20260506173438 | 15 | 244 | 0.0 | 1.6 | 0.48 | 0.41 | 0.41 | 99 | 1004.0 |
| 20260506172935 | 15 | 244 | 0.0 | 1.6 | 0.48 | 0.38 | 0.38 | 99 | 1003.9 |
| 20260506172432 | 15 | 244 | 0.0 | 1.6 | 0.30 | 0.33 | 0.33 | 99 | 1004.2 |
| 20260506171928 | 15 | 244 | 0.0 | 0.0 | 0.30 | 0.30 | 0.30 | 99 | 1004.3 |
| 20260506171425 | 15 | 244 | 0.0 | 0.0 | 0.30 | 0.28 | 0.28 | 99 | 1004.3 |
| 20260506170918 | 15 | 244 | 0.0 | 1.6 | 0.30 | 0.25 | 0.25 | 99 | 1004.5 |
| 20260506170413 | 15 | 244 | 0.0 | 1.6 | 0.30 | 0.23 | 0.23 | 99 | 1004.5 |
| 20260506165907 | 15 | 244 | 0.0 | 0.0 | 0.30 | 0.20 | 0.20 | 99 | 1004.1 |
| 20260506165405 | 15 | 244 | 0.0 | 1.6 | 0.13 | 0.18 | 0.18 | 99 | 1004.5 |
| 20260506164901 | 15 | 244 | 0.0 | 0.0 | 0.18 | 0.15 | 0.15 | 99 | 1004.4 |
| 20260506164357 | 15 | 244 | 1.6 | 1.6 | 0.30 | 0.15 | 0.15 | 99 | 1004.4 |
| 20260506163855 | 15 | 244 | 0.0 | 1.6 | 0.13 | 0.13 | 0.13 | 99 | 1004.4 |
| 20260506163349 | 15 | 244 | 3.2 | 4.8 | 0.00 | 0.10 | 0.10 | 98 | 1004.4 |
| 20260506162845 | 15 | 244 | 3.2 | 3.2 | 0.00 | 0.10 | 0.10 | 97 | 1004.6 |
| 20260506162343 | 15 | 244 | 1.6 | 3.2 | 0.18 | 0.10 | 0.10 | 97 | 1004.7 |
| 20260506161835 | 15 | 244 | 3.2 | 3.2 | 0.18 | 0.10 | 0.10 | 96 | 1004.6 |
| 20260506161332 | 16 | 244 | 1.6 | 1.6 | 0.00 | 0.08 | 0.08 | 96 | 1004.9 |
| 20260506160829 | 15 | 243 | 0.0 | 1.6 | 0.00 | 0.08 | 0.08 | 95 | 1005.2 |
| 20260506160325 | 16 | 244 | 1.6 | 3.2 | 0.00 | 0.08 | 0.08 | 94 | 1005.2 |
| 20260506155824 | 16 | 244 | 1.6 | 1.6 | 0.13 | 0.08 | 0.08 | 96 | 1005.4 |
| 20260506155320 | 16 | 244 | 0.0 | 1.6 | 0.13 | 0.08 | 0.08 | 97 | 1005.4 |
| 20260506153433 | 16 | 244 | 0.0 | 0.0 | 0.18 | 0.05 | 0.05 | 95 | 1005.6 |
| 20260506152931 | 16 | 244 | 0.0 | 0.0 | 0.18 | 0.05 | 0.05 | 95 | 1005.7 |
| 20260506152427 | 16 | 244 | 0.0 | 0.0 | 0.00 | 0.03 | 0.03 | 93 | 1005.6 |
| 20260506151926 | 16 | 243 | 0.0 | 1.6 | 0.00 | 0.03 | 0.03 | 91 | 1005.6 |
| 20260506151423 | 16 | 244 | 0.0 | 1.6 | 0.00 | 0.03 | 0.03 | 90 | 1005.5 |
| 20260506150921 | 16 | 244 | 0.0 | 1.6 | 0.00 | 0.03 | 0.03 | 90 | 1005.6 |
| 20260506150416 | 16 | 244 | 1.6 | 1.6 | 0.00 | 0.03 | 0.03 | 89 | 1005.5 |
| 20260506145914 | 16 | 244 | 0.0 | 0.0 | 0.00 | 0.03 | 0.03 | 90 | 1005.7 |
| 20260506145409 | 16 | 244 | 0.0 | 0.0 | 0.00 | 0.03 | 0.03 | 91 | 1005.7 |
| 20260506144907 | 16 | 244 | 0.0 | 0.0 | 0.00 | 0.03 | 0.03 | 88 | 1005.6 |
| 20260506144403 | 16 | 244 | 1.6 | 3.2 | 0.00 | 0.03 | 0.03 | 87 | 1005.8 |
| 20260506143902 | 16 | 244 | 1.6 | 4.8 | 0.00 | 0.03 | 0.03 | 89 | 1005.7 |
| 20260506143358 | 16 | 244 | 0.0 | 1.6 | 0.00 | 0.03 | 0.03 | 88 | 1005.8 |
| 20260506142857 | 16 | 244 | 0.0 | 0.0 | 0.00 | 0.03 | 0.03 | 89 | 1005.8 |
| 20260506142355 | 16 | 244 | 0.0 | 1.6 | 0.00 | 0.03 | 0.03 | 89 | 1005.9 |
| 20260506141853 | 15 | 244 | 1.6 | 1.6 | 0.00 | 0.03 | 0.03 | 92 | 1005.5 |
| 20260506141350 | 15 | 244 | 0.0 | 3.2 | 0.00 | 0.03 | 0.03 | 94 | 1005.5 |
| 20260506140848 | 15 | 244 | 0.0 | 3.2 | 0.00 | 0.03 | 0.03 | 95 | 1005.7 |
| 20260506140345 | 15 | 244 | 0.0 | 3.2 | 0.00 | 0.03 | 0.03 | 97 | 1005.7 |
| 20260506135842 | 14 | 244 | 1.6 | 1.6 | 0.00 | 0.03 | 0.03 | 99 | 1005.6 |
| 20260506135338 | 14 | 244 | 1.6 | 1.6 | 0.00 | 0.03 | 0.03 | 99 | 1005.8 |
| 20260506134835 | 13 | 244 | 0.0 | 3.2 | 0.00 | 0.03 | 0.03 | 99 | 1005.8 |
| 20260506134331 | 14 | 244 | 0.0 | 1.6 | 0.00 | 0.03 | 0.03 | 99 | 1005.9 |
| 20260506133829 | 14 | 244 | 0.0 | 1.6 | 0.00 | 0.03 | 0.03 | 99 | 1005.9 |
| 20260506133325 | 14 | 244 | 0.0 | 1.6 | 0.00 | 0.03 | 0.03 | 99 | 1006.0 |
| 20260506132822 | 14 | 244 | 1.6 | 1.6 | 0.00 | 0.03 | 0.03 | 99 | 1006.0 |
| 20260506132319 | 14 | 244 | 1.6 | 3.2 | 0.00 | 0.03 | 0.03 | 99 | 1006.1 |
| 20260506131817 | 14 | 244 | 0.0 | 1.6 | 0.00 | 0.03 | 0.03 | 99 | 1006.0 |
| 20260506131313 | 14 | 244 | 0.0 | 0.0 | 0.00 | 0.03 | 0.03 | 99 | 1006.0 |
| 20260506130810 | 14 | 244 | 0.0 | 1.6 | 0.00 | 0.03 | 0.03 | 99 | 1006.2 |
| 20260506130307 | 13 | 244 | 1.6 | 3.2 | 0.00 | 0.03 | 0.03 | 99 | 1006.1 |
| 20260506125805 | 14 | 244 | 0.0 | 0.0 | 0.00 | 0.03 | 0.03 | 99 | 1006.4 |
| 20260506125305 | 14 | 244 | 0.0 | 0.0 | 0.00 | 0.03 | 0.03 | 99 | 1005.9 |
| 20260506124801 | 13 | 244 | 0.0 | 0.0 | 0.00 | 0.03 | 0.03 | 99 | 1006.1 |
| 20260506124258 | 13 | 244 | 3.2 | 3.2 | 0.00 | 0.03 | 0.03 | 99 | 1006.1 |
| 20260506123755 | 13 | 244 | 1.6 | 3.2 | 0.00 | 0.03 | 0.03 | 99 | 1006.0 |
| 20260506123254 | 13 | 244 | 0.0 | 0.0 | 0.00 | 0.03 | 0.03 | 99 | 1005.8 |
| 20260506122750 | 13 | 244 | 1.6 | 3.2 | 0.00 | 0.03 | 0.03 | 99 | 1005.9 |
| 20260506122247 | 13 | 244 | 0.0 | 0.0 | 0.00 | 0.03 | 0.03 | 99 | 1006.3 |
| 20260506121746 | 13 | 244 | 0.0 | 1.6 | 0.00 | 0.03 | 0.03 | 99 | 1006.2 |
| 20260506121242 | 13 | 244 | 1.6 | 1.6 | 0.00 | 0.03 | 0.03 | 99 | 1006.2 |
| 20260506120739 | 13 | 244 | 0.0 | 0.0 | 0.00 | 0.03 | 0.03 | 99 | 1006.3 |
| 20260506120237 | 13 | 244 | 0.0 | 1.6 | 0.00 | 0.03 | 0.03 | 99 | 1006.4 |
| 20260506115735 | 13 | 244 | 0.0 | 0.0 | 0.00 | 0.03 | 0.03 | 99 | 1006.4 |
| 20260506115233 | 13 | 244 | 0.0 | 1.6 | 0.00 | 0.03 | 0.03 | 99 | 1006.1 |
| 20260506114730 | 12 | 244 | 1.6 | 3.2 | 0.00 | 0.03 | 0.03 | 99 | 1006.3 |
| 20260506114227 | 12 | 244 | 0.0 | 0.0 | 0.00 | 0.03 | 0.03 | 99 | 1006.4 |
| 20260506113726 | 12 | 244 | 0.0 | 0.0 | 0.00 | 0.03 | 0.03 | 99 | 1006.3 |
| 20260506113223 | 12 | 244 | 0.0 | 0.0 | 0.00 | 0.03 | 0.03 | 99 | 1006.4 |
| 20260506112719 | 12 | 244 | 0.0 | 0.0 | 0.00 | 0.03 | 0.03 | 99 | 1006.2 |
| 20260506112217 | 12 | 244 | 0.0 | 1.6 | 0.00 | 0.03 | 0.03 | 99 | 1006.4 |
| 20260506111714 | 12 | 244 | 0.0 | 0.0 | 0.00 | 0.03 | 0.03 | 99 | 1006.3 |
| 20260506111213 | 12 | 244 | 0.0 | 3.2 | 0.00 | 0.03 | 0.03 | 99 | 1006.2 |
| 20260506110709 | 12 | 244 | 1.6 | 1.6 | 0.00 | 0.03 | 0.03 | 99 | 1006.4 |
| 20260506110207 | 12 | 244 | 0.0 | 1.6 | 0.00 | 0.03 | 0.03 | 99 | 1006.3 |
| 20260506105703 | 11 | 244 | 1.6 | 1.6 | 0.00 | 0.03 | 0.03 | 99 | 1006.4 |
| 20260506105200 | 11 | 244 | 0.0 | 0.0 | 0.00 | 0.03 | 0.03 | 99 | 1006.3 |
| 20260506104658 | 12 | 244 | 1.6 | 1.6 | 0.00 | 0.03 | 0.03 | 99 | 1006.5 |
| 20260506104155 | 12 | 244 | 0.0 | 1.6 | 0.00 | 0.03 | 0.03 | 99 | 1006.6 |
| 20260506103652 | 11 | 244 | 0.0 | 0.0 | 0.00 | 0.03 | 0.03 | 99 | 1006.4 |
| 20260506103149 | 11 | 244 | 0.0 | 0.0 | 0.00 | 0.03 | 0.03 | 99 | 1006.2 |
| 20260506102647 | 11 | 244 | 0.0 | 0.0 | 0.00 | 0.03 | 0.03 | 99 | 1006.1 |
| 20260506102144 | 11 | 244 | 0.0 | 0.0 | 0.00 | 0.03 | 0.03 | 99 | 1006.1 |
| 20260506101641 | 11 | 244 | 0.0 | 0.0 | 0.00 | 0.03 | 0.03 | 99 | 1006.4 |
| 20260506101138 | 12 | 244 | 0.0 | 0.0 | 0.00 | 0.03 | 0.03 | 99 | 1006.1 |
| 20260506100637 | 11 | 244 | 0.0 | 0.0 | 0.00 | 0.03 | 0.03 | 99 | 1006.2 |
| 20260506100134 | 11 | 244 | 0.0 | 0.0 | 0.00 | 0.03 | 0.03 | 99 | 1006.1 |
| 20260506095633 | 11 | 244 | 1.6 | 1.6 | 0.00 | 0.03 | 0.03 | 99 | 1006.2 |
| 20260506095129 | 11 | 244 | 1.6 | 1.6 | 0.00 | 0.03 | 0.03 | 99 | 1006.2 |
| 20260506094626 | 11 | 244 | 1.6 | 1.6 | 0.00 | 0.03 | 0.03 | 99 | 1006.1 |
| 20260506094124 | 11 | 244 | 0.0 | 0.0 | 0.00 | 0.03 | 0.03 | 99 | 1006.3 |
| 20260506093622 | 11 | 244 | 0.0 | 1.6 | 0.00 | 0.03 | 0.03 | 99 | 1006.1 |
| 20260506093119 | 12 | 244 | 1.6 | 1.6 | 0.00 | 0.03 | 0.03 | 99 | 1006.2 |
| 20260506092617 | 12 | 244 | 0.0 | 0.0 | 0.00 | 0.03 | 0.03 | 99 | 1006.1 |
| 20260506092114 | 11 | 244 | 0.0 | 1.6 | 0.00 | 0.03 | 0.03 | 99 | 1006.1 |
| 20260506091612 | 12 | 244 | 0.0 | 0.0 | 0.00 | 0.03 | 0.03 | 99 | 1006.1 |
| 20260506091109 | 12 | 244 | 0.0 | 0.0 | 0.00 | 0.03 | 0.03 | 99 | 1006.1 |
| 20260506090607 | 12 | 244 | 0.0 | 0.0 | 0.00 | 0.03 | 0.03 | 99 | 1006.4 |
| 20260506085600 | 12 | 244 | 0.0 | 0.0 | 0.00 | 0.03 | 0.03 | 99 | 1006.5 |
| 20260506085056 | 12 | 244 | 0.0 | 0.0 | 0.00 | 0.03 | 0.03 | 99 | 1006.4 |
| 20260506084553 | 12 | 244 | 1.6 | 3.2 | 0.00 | 0.03 | 0.03 | 99 | 1006.4 |
| 20260506084049 | 12 | 244 | 3.2 | 3.2 | 0.00 | 0.03 | 0.03 | 99 | 1006.3 |
| 20260506083547 | 12 | 244 | 3.2 | 4.8 | 0.00 | 0.03 | 0.03 | 99 | 1006.3 |
| 20260506083044 | 12 | 244 | 0.0 | 1.6 | 0.00 | 0.03 | 0.03 | 99 | 1006.2 |
| 20260506082540 | 12 | 244 | 0.0 | 0.0 | 0.00 | 0.03 | 0.03 | 99 | 1006.2 |
| 20260506082036 | 12 | 244 | 3.2 | 3.2 | 0.00 | 0.03 | 0.03 | 99 | 1006.3 |
| 20260506081535 | 12 | 244 | 0.0 | 0.0 | 0.00 | 0.03 | 0.03 | 99 | 1006.0 |
| 20260506081032 | 12 | 244 | 0.0 | 0.0 | 0.00 | 0.03 | 0.03 | 99 | 1006.2 |
| 20260506080530 | 13 | 244 | 1.6 | 1.6 | 0.00 | 0.03 | 0.03 | 99 | 1006.1 |
| 20260506073513 | 12 | 244 | 0.0 | 0.0 | 0.00 | 0.03 | 0.03 | 99 | 1006.3 |
| 20260506073010 | 12 | 244 | 0.0 | 1.6 | 0.00 | 0.03 | 0.03 | 99 | 1006.4 |
| 20260506072507 | 12 | 244 | 0.0 | 0.0 | 0.00 | 0.03 | 0.03 | 99 | 1006.1 |
| 20260506072005 | 12 | 244 | 0.0 | 0.0 | 0.00 | 0.03 | 0.03 | 99 | 1006.1 |
| 20260506071503 | 12 | 244 | 0.0 | 0.0 | 0.00 | 0.03 | 0.03 | 99 | 1006.1 |
| 20260506070959 | 12 | 244 | 0.0 | 0.0 | 0.00 | 0.03 | 0.03 | 99 | 1006.1 |
| 20260506070456 | 12 | 244 | 0.0 | 0.0 | 0.00 | 0.03 | 0.03 | 99 | 1005.9 |
| 20260506062434 | 12 | 244 | 0.0 | 3.2 | 0.00 | 0.03 | 0.03 | 99 | 1006.1 |
| 20260506061930 | 12 | 244 | 1.6 | 4.8 | 0.00 | 0.03 | 0.03 | 99 | 1006.4 |
| 20260506061426 | 12 | 244 | 0.0 | 0.0 | 0.00 | 0.03 | 0.03 | 99 | 1006.0 |
| 20260506060925 | 12 | 244 | 0.0 | 0.0 | 0.00 | 0.03 | 0.03 | 99 | 1006.1 |
| 20260506060422 | 12 | 244 | 1.6 | 1.6 | 0.00 | 0.03 | 0.03 | 99 | 1005.8 |
| 20260506051354 | 13 | 244 | 0.0 | 0.0 | 0.00 | 0.00 | 0.00 | 99 | 1005.8 |
| 20260506050851 | 13 | 244 | 0.0 | 0.0 | 0.00 | 0.00 | 0.00 | 99 | 1005.9 |
| 20260506050349 | 13 | 244 | 0.0 | 0.0 | 0.00 | 0.00 | 0.00 | 99 | 1006.0 |
| 20260506044839 | 13 | 244 | 0.0 | 0.0 | 0.00 | 0.00 | 0.00 | 99 | 1006.1 |
| 20260506044337 | 13 | 244 | 0.0 | 3.2 | 0.00 | 0.00 | 0.00 | 99 | 1006.2 |
| 20260506043834 | 12 | 244 | 0.0 | 1.6 | 0.00 | 0.00 | 0.00 | 99 | 1006.0 |
| 20260506043331 | 12 | 244 | 0.0 | 0.0 | 0.00 | 0.00 | 0.00 | 99 | 1006.1 |
| 20260506042829 | 12 | 244 | 0.0 | 0.0 | 0.00 | 0.00 | 0.00 | 99 | 1006.2 |
| 20260506042328 | 12 | 244 | 1.6 | 3.2 | 0.00 | 0.00 | 0.00 | 99 | 1006.1 |
| 20260506041827 | 13 | 244 | 0.0 | 0.0 | 0.00 | 0.00 | 0.00 | 99 | 1006.2 |
| 20260506041323 | 13 | 244 | 0.0 | 0.0 | 0.00 | 0.00 | 0.00 | 99 | 1005.8 |
| 20260506040820 | 12 | 244 | 0.0 | 1.6 | 0.00 | 0.00 | 0.00 | 99 | 1006.0 |
| 20260506040318 | 13 | 244 | 0.0 | 0.0 | 0.00 | 0.00 | 0.00 | 99 | 1006.3 |
| 20260506035814 | 13 | 244 | 0.0 | 0.0 | 0.00 | 0.23 | 0.23 | 99 | 1006.0 |
| 20260506035311 | 13 | 244 | 0.0 | 0.0 | 0.00 | 0.23 | 0.23 | 99 | 1006.0 |
| 20260506034809 | 13 | 244 | 0.0 | 0.0 | 0.00 | 0.23 | 0.23 | 99 | 1005.9 |
| 20260506034306 | 13 | 244 | 1.6 | 3.2 | 0.00 | 0.23 | 0.23 | 99 | 1005.9 |
| 20260506033802 | 13 | 244 | 0.0 | 0.0 | 0.00 | 0.23 | 0.23 | 99 | 1006.0 |
| 20260506033259 | 13 | 244 | 0.0 | 1.6 | 0.00 | 0.23 | 0.23 | 99 | 1006.1 |
| 20260506032756 | 13 | 244 | 1.6 | 3.2 | 0.00 | 0.23 | 0.23 | 99 | 1006.0 |
| 20260506032253 | 13 | 244 | 0.0 | 0.0 | 0.00 | 0.23 | 0.23 | 99 | 1006.3 |
| 20260506031750 | 13 | 244 | 1.6 | 1.6 | 0.00 | 0.23 | 0.23 | 99 | 1006.1 |
| 20260506031247 | 13 | 244 | 0.0 | 1.6 | 0.00 | 0.23 | 0.23 | 99 | 1006.3 |
| 20260506030745 | 12 | 244 | 0.0 | 1.6 | 0.00 | 0.23 | 0.23 | 99 | 1006.3 |
| 20260506030243 | 13 | 244 | 0.0 | 1.6 | 0.00 | 0.23 | 0.23 | 99 | 1006.2 |
| 20260506025739 | 13 | 244 | 0.0 | 1.6 | 0.00 | 0.23 | 0.23 | 99 | 1006.4 |
| 20260506025236 | 13 | 244 | 3.2 | 3.2 | 0.00 | 0.23 | 0.23 | 99 | 1006.0 |
| 20260506024732 | 13 | 244 | 1.6 | 3.2 | 0.00 | 0.23 | 0.23 | 99 | 1005.9 |
| 20260506024228 | 13 | 244 | 0.0 | 1.6 | 0.00 | 0.23 | 0.23 | 99 | 1005.9 |
| 20260506023720 | 13 | 244 | 1.6 | 1.6 | 0.00 | 0.23 | 0.23 | 99 | 1005.9 |
| 20260506023217 | 13 | 244 | 0.0 | 1.6 | 0.00 | 0.23 | 0.23 | 99 | 1005.9 |
| 20260506022714 | 13 | 244 | 0.0 | 1.6 | 0.00 | 0.23 | 0.23 | 99 | 1005.6 |
| 20260506022212 | 13 | 244 | 1.6 | 3.2 | 0.00 | 0.23 | 0.23 | 99 | 1005.5 |
| 20260506021709 | 13 | 243 | 1.6 | 3.2 | 0.00 | 0.23 | 0.23 | 99 | 1005.6 |